x

South Brooks (46132) Wave Buoy

9:00 - Tue 29th Jul 2014 All times are PDT. -7 hours from GMT.

  • Sig Wave height 3.6ft
  • Peak Period 8s
  • Wind
    2mph, 4mph gusts
  • Sea Temp 62°f
  • Aire Temp 61°f
  • Sea Pressure 1022.3mb
  • South Brooks
  • South Brooks

More Historic Weather Station data

Upgrade to MSW Pro to gain access to the past 30 days of data for over 8000 Wavebouys and Weather Stations around the globe.

Join Pro

Comparision Forecast

View Surf forecast
   
mar 07/29 9:00 3.5ft 8s 2 4 mph 1022.3mb 62f 61f
8:00 4ft 7s 4 7 mph 1022mb 62f 60f
7:00 4ft 7s 7 9 mph 1021.7mb 62f 60f
6:00 4ft 7s 7 9 mph 1021.1mb 62f 61f
5:00 4ft 6s 4 7 mph 1020.8mb 62f 61f
4:00 3.5ft 6s 7 9 mph 1020.7mb 62f 61f
3:00 3.5ft 6s 9 11 mph 1020.6mb 62f 62f
2:00 3ft 6s 7 9 mph 1020.6mb 62f 61f
1:00 2.5ft 8s 7
mph
1020.6mb 62f 62f
12:00 2.5ft 8s 7
mph
1020.9mb 62f 62f
lun 07/28 11:00 2.5ft 8s 4
mph
1021.1mb 62f 62f
10:00 2.5ft 8s 4 7 mph 1021.1mb 62f 62f
9:00 2.5ft 8s 7
mph
1021mb 62f 62f
8:00 2.5ft 16s 7 9 mph 1021.3mb 62f 62f
7:00 2.5ft 15s 7 9 mph 1021.4mb 62f 62f
6:00 2.5ft 8s 7 9 mph 1021.6mb 63f 62f
5:00 2.5ft 8s 7
mph
1021.9mb 63f 62f
4:00 2.5ft 8s 7 9 mph 1022mb 63f 61f
3:00 2.5ft 8s 7 11 mph 1022.2mb 62f 60f
2:00 2.5ft 8s 7 9 mph 1022.2mb 62f 60f
1:00 2.5ft 8s 9 11 mph 1022.2mb 62f 61f
12:00 2.5ft 7s 7 11 mph 1021.9mb 63f 61f
11:00 2.5ft 8s 2 4 mph 1022mb 62f 58f
10:00 2.5ft 8s 7 9 mph 1021.9mb 61f 57f
9:00 2.5ft 8s 9
mph
1022mb 61f 58f
8:00 2.5ft 8s 4 9 mph 1022mb 61f 60f
7:00 2.5ft 8s 7 9 mph 1022mb 61f 60f
6:00 3ft 8s 7 9 mph 1021.8mb 61f 60f
5:00 3ft 8s 7 9 mph 1021.6mb 61f 60f
4:00 3ft 8s 9 11 mph 1021.3mb 61f 60f
3:00 3ft 8s 9 13 mph 1021.3mb 61f 59f
2:00 3ft 8s 9 13 mph 1021.6mb 61f 59f
1:00 3ft 8s 9 11 mph 1022mb 62f 58f
12:00 3ft 8s 7 9 mph 1022.1mb 62f 59f
dom 07/27 11:00 3ft 8s 9 13 mph 1022.2mb 62f 60f
10:00 3ft 8s 7 9 mph 1022.3mb 62f 61f
9:00 3ft 8s 9 11 mph 1022.4mb 62f 61f
8:00 2.5ft 8s 4 7 mph 1022.5mb 62f 62f
7:00 3ft 8s 7 9 mph 1022.7mb 62f 62f
6:00 3ft 8s 7 9 mph 1023.1mb 62f 62f
5:00 3.5ft 8s 7 9 mph 1023.5mb 62f 62f
4:00 3.5ft 8s 7
mph
1023.8mb 62f 62f
3:00 3.5ft 7s 7 9 mph 1023.9mb 62f 61f
2:00 3.5ft 8s 7 9 mph 1023.9mb 61f 61f
1:00 3.5ft 7s 7 9 mph 1023.9mb 61f 61f
12:00 3.5ft 8s 4 7 mph 1023.9mb 61f 61f
11:00 3.5ft 8s 4 7 mph 1023.9mb 60f 60f
10:00 3.5ft 8s 7 9 mph 1023.7mb 60f 60f
9:00 3ft 8s 7 9 mph 1023.7mb 60f 60f
8:00 3ft 8s 4 7 mph 1023.6mb 60f 59f
7:00 3ft 8s 4
mph
1023.4mb 60f 60f
6:00 3.5ft 8s 4 7 mph 1023.2mb 60f 60f
5:00 3ft 9s 4 7 mph 1023.1mb 60f 60f
4:00 3.5ft 9s 7 9 mph 1022.9mb 60f 60f
3:00 3.5ft 9s 7
mph
1022.8mb 60f 60f
2:00 4ft 8s 7 9 mph 1022.8mb 60f 59f
1:00 4.5ft 8s 7
mph
1022.7mb 60f 60f
12:00 4.5ft 8s 7 9 mph 1022.7mb 60f 60f
sáb 07/26 11:00 4.5ft 8s 4 7 mph 1022.7mb 60f 60f
10:00 4.5ft 8s 7 9 mph 1022.7mb 60f 60f
9:00 4ft 8s 7
mph
1022.5mb 60f 60f
8:00 3.5ft 8s 7 9 mph 1022.5mb 60f 60f
7:00 3.5ft 8s 9 11 mph 1022.5mb 60f 60f
6:00 3.5ft 8s 9 11 mph 1022.7mb 60f 60f
5:00 3.5ft 8s 9 11 mph 1022.7mb 60f 60f
4:00 3.5ft 8s 9 11 mph 1022.7mb 60f 60f
3:00 3.5ft 8s 11 13 mph 1022.6mb 60f 60f
2:00 3.5ft 8s 9 11 mph 1022.6mb 60f 60f
1:00 4ft 8s 11 13 mph 1022.3mb 60f 59f
12:00 3.5ft 8s 13 16 mph 1022mb 59f 59f
11:00 3.5ft 8s 13 18 mph 1021.9mb 59f 59f
10:00 3.5ft 7s 13 16 mph 1021.5mb 59f 59f
9:00 3.5ft 8s 16 18 mph 1021.1mb 59f 59f
8:00 2.5ft 8s 16 20 mph 1020.7mb 59f 59f
7:00 3ft 8s 13 16 mph 1020.4mb 60f 59f
6:00 2.5ft 8s 13
mph
1020.2mb 60f 59f
5:00 3ft 8s 11 13 mph 1020.1mb 59f 58f
4:00 3ft 8s 9 11 mph 1020.1mb 59f 59f
3:00 3ft 8s 9 11 mph 1020.1mb 59f 59f
2:00 3.5ft 8s 9
mph
1020mb 59f 59f
1:00 3.5ft 6s 9 11 mph 1020.1mb 59f 59f
12:00 3.5ft 6s 9 11 mph 1020.2mb 59f 59f
vie 07/25 11:00 3ft 6s 9
mph
1020.5mb 59f 59f
10:00 3ft 7s 7 9 mph 1020.4mb 59f 59f
9:00 2.5ft 7s 7 9 mph 1020.4mb 60f 59f
8:00 2.5ft 6s 7 9 mph 1020.4mb 60f 59f
7:00 2.5ft 6s 7 9 mph 1020.6mb 60f 60f
6:00 2.5ft 6s 7
mph
1020.8mb 60f 60f